sat.trackr.live / text

‹ back to catalog

ONEWEB-0586

NORAD 54653 · 2022-166M

PAYLOAD ACTIVE UNKNOWN

§ Identity

Operator
Country
UK
Launch date
2022-12-08
Launch site
AFETR
Launch vehicle
Mass (kg)
RCS (m²)

Purposes: comms

External: N2YO · Heavens-Above · Gunter

§ Orbital elements

Epoch: 2026-05-25T00:53:23.741376Z

Period
108.94 min
Inclination
87.9253°
Eccentricity
0.0002122
Mean motion
13.21827475 rev/d
Perigee alt
1,176.1 km
Apogee alt
1,179.4 km
Semi-major
7,555.9 km
B*
8.9411e-5
RAAN
248.6016°
Arg perigee
96.7337°
Mean anomaly
263.4038°
Rev number
16,846

§ Raw data

ONEWEB-05861 54653U 22166M   26145.03708034  .00000050  00000+0  89411-4 0  99942 54653  87.9253 248.6016 0002122  96.7337 263.4038 13.21827475168469

JSON: /api/v1/satellites/54653 · /tle

For live sub-satellite position, see the globe view (requires WebGL).

§ Visibility from observer

Set your observer location to see the next 7 days of passes ≥ 10°. The values pass through the URL so the page stays shareable.

No JS? Fill the form by hand. The geolocation button needs JavaScript.